Regional Weather Roundup
Issued by NWS

Home | Current Version | Previous Version | Text Only | Print | Product List | Glossary On
Versions: 1 2 3 4 5 6 7 8 9 10 11 12 13 14 15 16 17 18 19 20 21 22 23 24 25 26 27 28 29 30 31 32 33 34 35 36 37 38 39 40 41 42 43 44 45 46 47 48 49 50
000
ASUS43 KLMK 190610
RWRKY
KENTUCKY REGIONAL WEATHER ROUNDUP
NATIONAL WEATHER SERVICE LOUISVILLE KY
100 AM EST THU JAN 19 2017

NOTE "FAIR" INDICATES FEW OR NO CLOUDS BELOW 12,000 FEET
WITH NO SIGNIFICANT WEATHER AND/OR OBSTRUCTIONS TO VISIBILITY.

KYZ001>023-026-027-061>063-070>075-190700-
WESTERN AND SOUTH CENTRAL KENTUCKY

CITY           SKY/WX    TMP DP  RH WIND       PRES   REMARKS
PADUCAH        CLOUDY    46  40  79 NE3       30.05F
HENDERSON      CLOUDY    41  36  81 E9        30.07F
OWENSBORO      CLOUDY    41  37  86 E7        30.09F
HOPKINSVILLE   CLOUDY    45  43  91 CALM      30.08S
BOWLING GREEN  MOCLDY    43  39  86 NE5       30.09F
GLASGOW        CLOUDY    41  41 100 CALM      30.09F
$$

KYZ024-025-028>034-038-045-046-053-190700-
NORTH CENTRAL KENTUCKY

CITY           SKY/WX    TMP DP  RH WIND       PRES   REMARKS
LOUISVILLE/SDF CLOUDY    41  35  79 CALM      30.12F
LOUISVILLE/LOU MOCLDY    39  36  89 CALM      30.12F
FORT KNOX      CLOUDY    38  36  94 E3        30.09F
$$

KYZ035>037-039>044-047>052-055>060-089>105-190700-
NORTHEAST KENTUCKY

CITY           SKY/WX    TMP DP  RH WIND       PRES   REMARKS
LEXINGTON      CLOUDY    37  35  92 CALM      30.12S
COVINGTON      CLOUDY    39  37  92 S6        30.11S WCI  35
FRANKFORT      MOCLDY    35  32  88 CALM      30.11F
$$

KYZ054-064>069-076>088-106>120-190700-
SOUTHEAST KENTUCKY

CITY           SKY/WX    TMP DP  RH WIND       PRES   REMARKS
JACKSON        CLOUDY    40  36  86 SE3       30.11F
LONDON         PTCLDY    38  34  85 N3        30.11S
SOMERSET       CLOUDY    37  37 100 CALM      30.12F
MIDDLESBORO    CLOUDY    40  40  99 CALM      30.13R
MONTICELLO     CLOUDY    40  39  97 N9        30.12F WCI  34
$$




USA.gov is the U.S. government's official web portal to all federal, state and local government web resources and services.